Flag for Trinidad and Tobago Weather past 2 weeks in Port of Spain, Trinidad and Tobago

Now
90 °F

Scattered clouds.


Feels Like: 96 °F
Forecast: 80 / 86 °F
Wind: 8 mph from South

Location: Piarco International Airport - Trinidad

Current Time: Oct 2, 2014 at 12:53:46 PM

Latest Report: Oct 2, 2014 at 12:00 PM


Visibility: N/A

Pressure: 29.92 "Hg

Humidity: 55%

Dew point: 72 °F

Location of Port of SpainLocation

Historic Weather in Port of Spain — Graph

°F

Port of Spain temperature yesterday

Maximum temperature yesterday: 91 °F (at 11:00 AM)
Minimum temperature yesterday: 77 °F (at 12:00 AM)
Average temperature yesterday: 82 °F

Past Weeks' High & Low Weather Summary

 TemperatureHumidityPressure
High93 °F (Sep 30, 1:00 PM)100% (Sep 18, 6:00 AM)30.01 "Hg (Sep 18, 6:00 AM)
Low73 °F (Sep 19, 5:00 AM)49% (Sep 28, 12:00 PM)29.80 "Hg (Sep 25, 3:00 PM)
Average81 °F80%29.90 "Hg
* Reported Sep 17 11:00 AM — Oct 2 11:00 AM, Port of Spain, Weather by CustomWeather, © 2014

Note: Actual official high and low records may vary slightly from our data, if they occured in-between our weather recording intervals... More about our weather records

Advertising

Port of Spain weather history for previous 24 hours

 ConditionsComfort  
Time TempWeatherWind HumidityBarometerVisibility
11:00 AM
Oct 2
90 °FPassing clouds.6 mph59%29.95 "HgN/A
10:00 AM86 °FSunny.7 mph62%29.98 "Hg10 mi
9:00 AM79 °FPassing clouds.No wind89%30.01 "HgN/A
8:00 AM77 °FPartly sunny.No wind79%29.98 "HgN/A
7:00 AM73 °FPartly sunny.No wind94%29.95 "HgN/A
6:00 AM73 °FLight rain. Broken clouds.5 mph89%29.98 "Hg2 mi
5:00 AM73 °FLight rain. Passing clouds.17 mph89%29.98 "Hg2 mi
4:00 AM77 °FThunderstorms. Passing clouds.No wind89%29.95 "Hg4 mi
3:00 AM77 °FPassing clouds.No wind94%29.89 "HgN/A
2:00 AM77 °FPassing clouds.No wind94%29.92 "HgN/A
1:00 AM77 °FPassing clouds.No wind94%29.92 "HgN/A
12:00 AM79 °FPassing clouds.No wind89%29.95 "HgN/A
11:00 PM
Oct 1
79 °FScattered showers. Passing clouds.No wind89%29.95 "HgN/A
10:00 PM79 °FPassing clouds.No wind89%29.95 "HgN/A
9:00 PM79 °FPassing clouds.3 mph89%29.95 "HgN/A
8:00 PM81 °FPassing clouds.No wind84%29.92 "HgN/A
7:00 PM81 °FPassing clouds.No wind84%29.92 "HgN/A
6:00 PM81 °FPassing clouds.No wind89%29.92 "HgN/A
5:00 PM82 °FPassing clouds.3 mph79%29.89 "HgN/A
4:00 PM84 °FScattered clouds.12 mph70%29.89 "HgN/A
3:00 PM91 °FScattered clouds.14 mph56%29.89 "HgN/A
2:00 PM90 °FPartly sunny.12 mph59%29.89 "HgN/A
1:00 PM88 °FScattered showers. Scattered clouds.12 mph62%29.92 "HgN/A
12:00 PM91 °FScattered clouds.16 mph52%29.95 "HgN/A
Weather by CustomWeather, © 2014

See weather overviewHow to use our weather pages